Location: �perlecques
(50.8057°N, 2.1521°E)
Time: 21:06:05
(UTC+00:00)

Tiros 1 - Pass Details

Date: 11 August 2021
Orbit: 630 x 663 km, 48.4° (Epoch: 28 September)

Event Time Altitude Azimuth Distance (km) Brightness Sun altitude
Rises 18:56:53 0° 280° (W) 2,991 12.8 2.4°
Reaches altitude 10° 18:59:23 10° 272° (W) 2,073 11.3 2.0°
Maximum altitude 19:03:45 36° 206° (SSW) 1,036 8.3 1.4°
Drops below altitude 10° 19:08:04 10° 140° (SE) 2,049 9.2 0.8°
Sets 19:10:31 0° 132° (SE) 2,951 9.9 0.4°
